Satellite: ASTRA 1B
Catalog number: 21139
Epoch time:      103049.00000000
Element set:     161 
Inclination:        0.0122 deg
RA of node:       319.8851 deg
Eccentricity:    0.0002995
Arg of perigee:    65.1991 deg
Mean anomaly:     141.6493 deg
Mean motion:    1.00273184 rev/day
Decay rate:    1.1600Epoch rev:            3218
Checksum:              228

Satellite: METEOSAT 5 (MO
Catalog number: 21140
Epoch time:      103051.75115634
Element set:     728 
Inclination:        5.6339 deg
RA of node:        69.9265 deg
Eccentricity:    0.0001262
Arg of perigee:   154.0816 deg
Mean anomaly:     259.5039 deg
Mean motion:    1.00274796 rev/day
Decay rate:    1.5000E-007 rev/day^2
Epoch rev:            4607
Checksum:              280

Satellite: NOAA 12
Catalog number: 21263
Epoch time:      103052.08147762
Element set:     976 
Inclination:       98.6264 deg
RA of node:        41.6658 deg
Eccentricity:    0.0013447
Arg of perigee:    18.0710 deg
Mean anomaly:     342.0942 deg
Mean motion:   14.25084436 rev/day
Decay rate:    3.9199E-006 rev/day^2
Epoch rev:           61157
Checksum:              311

Satellite: OSCAR 22 (UoSA
Catalog number: 21575
Epoch time:      103052.56694080
Element set:     731 
Inclination:       98.1414 deg
RA of node:        44.5369 deg
Eccentricity:    0.0008236
Arg of perigee:   119.4188 deg
Mean anomaly:     240.7823 deg
Mean motion:   14.39158335 rev/day
Decay rate:    3.8500E-006 rev/day^2
Epoch rev:           60871
Checksum:              320

Satellite: METEOR 3-5
Catalog number: 21655
Epoch time:  Element set:     610 
Inclination:       82.5541 deg
RA of node:        37.1729 deg
Eccentricity:    0.0012450
Arg of perigee:   188.6647 deg
Mean anomaly:     171.4257 deg
Mean motion:   13.16979939 rev/day
Decay rate:    5.1000E-007 rev/day^2
Epoch rev:           55379
Checksum:              324

Satellite: UARS
Catalog number: 21701
Epoch time:      103051.69137839
Element set:     829 
Inclination:       56.9818 deg
RA of node:        23.4593 deg
Eccentricity:    0.0004549
Arg of perigee:   114.7175 deg
Mean anomaly:     245.4334 deg
Mean motion:   15.02865755 rev/day
Decay rate:    9.0100E-006 rev/day^2
Epoch rev:           62603
Checksum:              414

Satellite: EUTELSAT 2-F3
Catalog number: 21803
Epoch time:      103051.23602332
Element set:     523 
Inclination:        2.6012 deg
RA of node:        89.0599 deg
Eccentricity:    0.0003377
Arg of perigee:   288.3915 deg
Mean anomaly:     238.9500 deg
Mean motion:    1.00280373 rev/day
Decay rate:    1.2499E-006 rev/day^2
Epoch rev:            3701
Checksum:              269

Satellite: INMARSAT 2-F3
Catalog number: 21814
Epoch time:      103051.12937106
Element set:     619 
Inclination:        1.7474 deg
RA of node:        58.4347 deg
Eccentricity:    0.0002845
Arg of perigee:   283.8252 deg
Mean anomaly: Mean motion:    1.00270348 rev/day
Decay rate:    1.0700E-006 rev/day^2
Epoch rev:            4090
Checksum:              379

Satellite: INMARSAT 2-F4
Catalog number: 21940
Epoch time:      103050.69047470
Element set:     572 
Inclination:        2.3826 deg
RA of node:        19.3097 deg
Eccentricity:    0.0001649
Arg of perigee:   306.8710 deg
Mean anomaly:     180.4154 deg
Mean motion:    1.00263836 rev/day
Decay rate:   -3.5600E-006 rev/day^2
Epoch rev:            3969
Checksum:              286

Satellite: EUTELSAT 2-F4
Catalog number: 22028
Epoch time:      103052.08792247
Element set:     332 
Inclination:        1.RA of node:        92.4718 deg
Eccentricity:    0.0006109
Arg of perigee:   235.2870 deg
Mean anomaly:     202.1756 deg
Mean motion:    1.00271852 rev/day
Decay rate:   -1.0600E-006 rev/day^2
Epoch rev:            3180
Checksum:              363

Satellite: OSCAR 23 (KITS
Catalog number: 22077
Epoch time:      103051.89994342
Element set:     288 
Inclination:       66.0869 deg
RA of node:       120.8488 deg
Eccentricity:    0.0015592
Arg of perigee:   273.0752 deg
Mean anomaly:      86.8485 deg
Mean motion:   12.86408518 rev/day
Decay rate:   -3.7000E-007 rev/day^2
Epoch rev:           49460
Checksum:              344

Satellite: ASCatalog number: 22653
Epoch time:      103049.00000000
Element set:     788 
Inclination:        0.0122 deg
RA of node:       319.8851 deg
Eccentricity:    0.0002995
Arg of perigee:    65.1991 deg
Mean anomaly:     141.6099 deg
Mean motion:    1.00273184 rev/day
Decay rate:    1.1600E-006 rev/day^2
Epoch rev:            3088
Checksum:              252

Satellite: METEOR 2-21
Catalog number: 22782
Epoch time:      103052.06576137
Element set:     523 
Inclination:       82.5475 deg
RA of node:       212.9130 deg
Eccentricity:    0.0022109
Arg of perigee:   342.5935 deg
Mean anomaly:      17.4491 deg
Mean motion:   13.83532138 rev/day
Decay rate:   -4.8Epoch rev:           47843
Checksum:              320

Satellite: KITSAT B
Catalog number: 22825
Epoch time:      103052.20331005
Element set:     491 
Inclination:       98.2748 deg
RA of node:        81.7659 deg
Eccentricity:    0.0007451
Arg of perigee:   250.2176 deg
Mean anomaly:     109.8202 deg
Mean motion:   14.28944819 rev/day
Decay rate:    1.7300E-006 rev/day^2
Epoch rev:           49025
Checksum:              290

Satellite: POSAT 1
Catalog number: 22826
Epoch time:      103051.60307552
Element set:     313 
Inclination:       98.2754 deg
RA of node:        82.3140 deg
Eccentricity:    0.0008081
Arg of perigee:   253.9630 deg
Mean anomaly:     106.0658 deg
Mean motion:   14.29167789 rev/day
Decay rate:    2.0099E-006 rev/day^2
Epoch rev:           49021
Checksum:              294

Satellite: ITAMSAT
Catalog number: 22828
Epoch time:      103051.65290853
Element set:     430 
Inclination:       98.2711 deg
RA of node:        82.6236 deg
Eccentricity:    0.0009113
Arg of perigee:   229.8362 deg
Mean anomaly:     130.2023 deg
Mean motion:   14.29509495 rev/day
Decay rate:    1.6200E-006 rev/day^2
Epoch rev:           45842
Checksum:              283

Satellite: EYESAT A
Catalog number: 22829
Epoch time:      10305Element set:     455 
Inclination:       98.2720 deg
RA of node:        83.1722 deg
Eccentricity:    0.0008960
Arg of perigee:   230.0938 deg
Mean anomaly:     129.9452 deg
Mean motion:   14.29770467 rev/day
Decay rate:    2.7599E-006 rev/day^2
Epoch rev:           49034
Checksum:              452

Satellite: METEOSAT 6
Catalog number: 22912
Epoch time:      103042.94642362
Element set:     686 
Inclination:        2.6599 deg
RA of node:        82.5358 deg
Eccentricity:    0.0000791
Arg of perigee:   153.8835 deg
Mean anomaly:     255.5951 deg
Mean motion:    1.00280277 rev/day
Decay rate:    7.3000E-007 rev/day^2
Epoch rev:            3223
Checksum:              410

Satellite: GOES 8
Catalog number: 23051
Epoch time:      103050.15062644
Element set:     612 
Inclination:        0.2983 deg
RA of node:       103.0532 deg
Eccentricity:    0.0001115
Arg of perigee:   300.6345 deg
Mean anomaly:      84.4584 deg
Mean motion:    1.00277254 rev/day
Decay rate:   -2.5599E-006 rev/day^2
Epoch rev:            3981
Checksum:              257

Satellite: ASTRA 1D
Catalog number: 23331
Epoch time:      103048.86015624
Element set:     818 
Inclination:        0.0599 deg
RA of node:       221.2811 deg
Eccentricity:    0.0003631
Arg of perigee:   131.7762 deg
Mean anomaly:     12Mean motion:    1.00275415 rev/day
Decay rate:    1.3600E-006 rev/day^2
Epoch rev:            3086
Checksum:              249

Satellite: RADIO ROSTO
Catalog number: 23439
Epoch time:      103049.29359592
Element set:     682 
Inclination:       64.8151 deg
RA of node:        41.9255 deg
Eccentricity:    0.0146804
Arg of perigee:   115.2566 deg
Mean anomaly:     246.3616 deg
Mean motion:   11.27547528 rev/day
Decay rate:   -4.1999E-007 rev/day^2
Epoch rev:           33556
Checksum:              336

Satellite: NOAA 14
Catalog number: 23455
Epoch time:      103052.09359421
Element set:     530 
Inclination:       99.1867 deRA of node:        70.7288 deg
Eccentricity:    0.0008650
Arg of perigee:   220.7372 deg
Mean anomaly:     139.3153 deg
Mean motion:   14.13298949 rev/day
Decay rate:    1.8099E-006 rev/day^2
Epoch rev:           41983
Checksum:              331

Satellite: HIMAWARI 5 (GM
Catalog number: 23522
Epoch time:      103050.56947581
Element set:     110 
Inclination:        1.7604 deg
RA of node:        83.2930 deg
Eccentricity:    0.0000731
Arg of perigee:   139.8913 deg
Mean anomaly:     271.0564 deg
Mean motion:    1.00277903 rev/day
Decay rate:   -2.8500E-006 rev/day^2
Epoch rev:            2890
Checksum:              272

Satellite: HOTCatalog number: 23537
Epoch time:      103051.86711589
Element set:     536 
Inclination:        0.1065 deg
RA of node:       111.6969 deg
Eccentricity:    0.0007490
Arg of perigee:   174.8875 deg
Mean anomaly:     189.0308 deg
Mean motion:    1.00276476 rev/day
Decay rate:    8.2000E-007 rev/day^2
Epoch rev:            2899
Checksum:              426

Satellite: GOES 9
Catalog number: 23581
Epoch time:      103051.62366933
Element set:     525 
Inclination:        0.2682 deg
RA of node:       277.5903 deg
Eccentricity:    0.0012030
Arg of perigee:   251.7812 deg
Mean anomaly:      47.0538 deg
Mean motion:    1.00058125 rev/day
Decay rate:    1.1700EEpoch rev:            2838
Checksum:              263

